Change the Weather History Date:

Sunday, February 16, 2014

  Actual Average Record
Temperature  
Mean Temperature 51 °F 50 °F  
Max Temperature 63 °F 61 °F 85 °F (1989)
Min Temperature 38 °F 38 °F 16 °F (1991)
Degree Days  
Heating Degree Days 14 15  
Month to date heating degree days 242 267  
Since 1 July heating degree days 1739 1764  
Cooling Degree Days 0 0  
Month to date cooling degree days 0 0  
Year to date cooling degree days 0 1  
Moisture  
Dew Point 26 °F    
Average Humidity 46    
Maximum Humidity 70    
Minimum Humidity 25    
Precipitation  
Precipitation 0.00 in 0.15 in 1.57 in (1969)
Month to date precipitation 2.42 1.79  
Year to date precipitation 4.58 5.77  
Sea Level Pressure  
Sea Level Pressure 30.10 in    
Wind  
Wind Speed 6 mph (WSW)    
Max Wind Speed 18 mph    
Max Gust Speed 23 mph    
Visibility 10 miles    
Events      
T = Trace of Precipitation, MM = Missing Value Source: NWS Daily Summary

Daily Weather History Graph

Daily Weather History Graph

Search for Another Location

Airport or City:

Trip Planner

Search our weather history database for the weather conditions in past years. The results will help you decide how hot, cold, wet, or windy it might be!

Date:

Astronomy

Feb. 16, 2014 Rise Set
Actual Time 7:06 AM EST 6:09 PM EST
Civil Twilight 6:41 AM EST 6:34 PM EST
Nautical Twilight 6:11 AM EST 7:03 PM EST
Astronomical Twilight 5:43 AM EST 7:32 PM EST
Moon 7:56 PM EST (2/16) 7:42 AM EST (2/16)
Length of Visible Light 11h 53m
Length of Day
11h 02m
Full, 97% of the Moon is Illuminated
Feb 16
Full
Feb 22
Last Quarter
Mar 1
New
Mar 8
First Quarter
Mar 16
Full

Hourly Weather History & Observations

Time (EST) Temp. Windchill Dew Point Humidity Pressure Visibility Wind Dir Wind Speed Gust Speed Precip Events Conditions
12:53 AM 42.1 °F 36.6 °F 19.9 °F 41% 30.08 in 10.0 mi WNW 9.2 mph - N/A   Overcast
1:53 AM 41.0 °F 36.4 °F 19.9 °F 43% 30.05 in 10.0 mi NW 6.9 mph - N/A   Clear
2:53 AM 41.0 °F 36.4 °F 21.0 °F 45% 30.07 in 10.0 mi West 6.9 mph - N/A   Overcast
3:53 AM 39.9 °F 37.8 °F 21.0 °F 47% 30.08 in 10.0 mi NNW 3.5 mph - N/A   Overcast
4:53 AM 39.9 °F - 21.9 °F 49% 30.10 in 10.0 mi Calm Calm - N/A   Mostly Cloudy
5:53 AM 39.0 °F 34.8 °F 27.0 °F 62% 30.11 in 10.0 mi West 5.8 mph - N/A   Partly Cloudy
6:53 AM 39.0 °F 35.7 °F 24.1 °F 55% 30.13 in 10.0 mi WSW 4.6 mph - N/A   Overcast
7:53 AM 39.0 °F 36.8 °F 26.1 °F 60% 30.14 in 10.0 mi SW 3.5 mph - N/A   Overcast
8:53 AM 39.9 °F 34.5 °F 26.1 °F 58% 30.15 in 10.0 mi SW 8.1 mph - N/A   Scattered Clouds
9:53 AM 45.0 °F - 24.1 °F 44% 30.15 in 10.0 mi Calm Calm - N/A   Clear
10:53 AM 51.1 °F - 19.9 °F 29% 30.14 in 10.0 mi West 9.2 mph - N/A   Clear
11:53 AM 55.0 °F - 21.0 °F 27% 30.12 in 10.0 mi West 10.4 mph - N/A   Clear
12:53 PM 57.0 °F - 23.0 °F 27% 30.10 in 10.0 mi SW 9.2 mph - N/A   Clear
1:53 PM 60.1 °F - 26.1 °F 27% 30.07 in 10.0 mi West 12.7 mph 18.4 mph N/A   Clear
2:53 PM 62.1 °F - 28.0 °F 28% 30.06 in 10.0 mi WSW 10.4 mph 18.4 mph N/A   Clear
3:53 PM 62.1 °F - 27.0 °F 26% 30.06 in 10.0 mi West 17.3 mph 21.9 mph N/A   Clear
4:53 PM 62.1 °F - 26.1 °F 25% 30.06 in 10.0 mi West 15.0 mph 23.0 mph N/A   Clear
5:53 PM 59.0 °F - 27.0 °F 29% 30.07 in 10.0 mi WSW 8.1 mph - N/A   Clear
6:53 PM 53.1 °F - 28.9 °F 40% 30.10 in 10.0 mi SSW 4.6 mph - N/A   Clear
7:53 PM 46.0 °F 44.8 °F 33.1 °F 61% 30.12 in 10.0 mi SSE 3.5 mph - N/A   Clear
8:53 PM 46.0 °F - 33.1 °F 61% 30.12 in 10.0 mi Calm Calm - N/A   Clear
9:53 PM 42.1 °F - 34.0 °F 73% 30.14 in 10.0 mi Calm Calm - N/A   Clear
10:53 PM 42.1 °F - 33.1 °F 70% 30.14 in 10.0 mi Calm Calm - N/A   Clear
11:53 PM 43.0 °F - 33.1 °F 68% 30.14 in 10.0 mi Calm Calm - N/A   Clear